Time,TemperatureF,DewpointF,PressureIn,WindDirection,WindDirectionDegrees,WindSpeedMPH,WindSpeedGustMPH,Humidity,HourlyPrecipIn,Conditions,Clouds,dailyrainin,SoftwareType,DateUTC
2013-05-09 00:02:00,54.0,43.0,29.82,NNE,30,1.0,4.0,66,0.00,,,0.17,,2013-05-09 05:02:00,
2013-05-09 00:12:00,54.0,43.0,29.82,NNE,30,1.0,4.0,66,0.00,,,0.17,,2013-05-09 05:12:00,
2013-05-09 00:22:00,55.0,43.0,29.82,NNW,328,3.0,7.0,65,0.00,,,0.17,,2013-05-09 05:22:00,
2013-05-09 00:32:00,54.0,43.0,29.81,NW,321,2.0,7.0,67,0.00,,,0.17,,2013-05-09 05:32:00,
2013-05-09 00:42:00,54.0,43.0,29.81,NW,321,2.0,7.0,67,0.00,,,0.17,,2013-05-09 05:42:00,
2013-05-09 00:51:00,55.0,44.0,29.82,NNW,329,3.0,7.0,66,0.00,,,0.17,,2013-05-09 05:51:00,
2013-05-09 01:02:00,56.0,44.0,29.83,NW,317,3.0,9.0,64,0.00,,,0.17,,2013-05-09 06:02:00,
2013-05-09 01:12:00,56.0,44.0,29.83,NW,317,3.0,9.0,64,0.00,,,0.17,,2013-05-09 06:12:00,
2013-05-09 01:21:00,55.0,43.0,29.83,NW,325,4.0,8.0,65,0.00,,,0.17,,2013-05-09 06:21:00,
2013-05-09 01:32:00,55.0,44.0,29.83,NW,324,2.0,7.0,66,0.00,,,0.17,,2013-05-09 06:32:00,
2013-05-09 01:42:00,55.0,44.0,29.83,NW,324,2.0,7.0,66,0.00,,,0.17,,2013-05-09 06:42:00,
2013-05-09 01:52:00,54.0,44.0,29.82,North,355,1.0,5.0,68,0.00,,,0.17,,2013-05-09 06:52:00,
2013-05-09 02:01:00,54.0,44.0,29.83,NNW,329,2.0,5.0,68,0.00,,,0.17,,2013-05-09 07:01:00,
2013-05-09 02:12:00,54.0,44.0,29.83,NNW,329,2.0,5.0,68,0.00,,,0.17,,2013-05-09 07:12:00,
2013-05-09 02:21:00,54.0,44.0,29.83,North,355,1.0,4.0,69,0.00,,,0.17,,2013-05-09 07:21:00,
2013-05-09 02:32:00,53.0,43.0,29.83,NW,319,2.0,7.0,70,0.00,,,0.17,,2013-05-09 07:32:00,
2013-05-09 02:42:00,53.0,43.0,29.83,NW,319,2.0,7.0,70,0.00,,,0.17,,2013-05-09 07:42:00,
2013-05-09 02:52:00,53.0,44.0,29.83,East,83,0.0,3.0,71,0.00,,,0.17,,2013-05-09 07:52:00,
2013-05-09 03:02:00,52.0,44.0,29.83,South,188,0.0,3.0,73,0.00,,,0.17,,2013-05-09 08:02:00,
2013-05-09 03:11:00,52.0,44.0,29.83,South,188,0.0,3.0,73,0.00,,,0.17,,2013-05-09 08:11:00,
2013-05-09 03:21:00,51.0,43.0,29.82,SSW,205,1.0,4.0,75,0.00,,,0.17,,2013-05-09 08:21:00,
2013-05-09 03:32:00,51.0,44.0,29.81,South,171,1.0,3.0,77,0.00,,,0.09,,2013-05-09 08:32:00,
2013-05-09 03:42:00,51.0,44.0,29.81,South,171,1.0,3.0,77,0.00,,,0.09,,2013-05-09 08:42:00,
2013-05-09 03:51:00,51.0,44.0,29.80,SSW,212,2.0,4.0,78,0.00,,,0.09,,2013-05-09 08:51:00,
2013-05-09 04:02:00,50.0,44.0,29.80,SW,224,1.0,4.0,79,0.00,,,0.09,,2013-05-09 09:02:00,
2013-05-09 04:11:00,50.0,44.0,29.80,SW,224,1.0,4.0,79,0.00,,,0.09,,2013-05-09 09:11:00,
2013-05-09 04:21:00,50.0,44.0,29.80,SSW,205,0.0,3.0,79,0.00,,,0.09,,2013-05-09 09:21:00,
2013-05-09 04:32:00,50.0,44.0,29.82,SSW,205,0.0,4.0,80,0.00,,,0.07,,2013-05-09 09:32:00,
2013-05-09 04:42:00,50.0,44.0,29.82,SSW,205,0.0,4.0,80,0.00,,,0.07,,2013-05-09 09:42:00,
2013-05-09 04:52:00,50.0,44.0,29.83,SSW,206,0.0,3.0,81,0.00,,,0.07,,2013-05-09 09:52:00,
2013-05-09 05:02:00,50.0,44.0,29.84,SW,221,0.0,3.0,81,0.00,,,0.07,,2013-05-09 10:02:00,
2013-05-09 05:12:00,50.0,44.0,29.84,SW,221,0.0,3.0,81,0.00,,,0.07,,2013-05-09 10:12:00,
2013-05-09 05:22:00,50.0,44.0,29.84,WSW,239,0.0,2.0,81,0.00,,,0.07,,2013-05-09 10:22:00,
2013-05-09 05:33:00,50.0,44.0,29.84,SW,229,0.0,3.0,81,0.00,,,0.03,,2013-05-09 10:33:00,
2013-05-09 05:42:00,50.0,44.0,29.84,SW,229,0.0,3.0,81,0.00,,,0.03,,2013-05-09 10:42:00,
2013-05-09 05:52:00,50.0,44.0,29.85,SW,225,0.0,3.0,81,0.00,,,0.03,,2013-05-09 10:52:00,
2013-05-09 06:02:00,51.0,46.0,29.85,SW,219,0.0,3.0,82,0.00,,,0.03,,2013-05-09 11:02:00,
2013-05-09 06:12:00,51.0,46.0,29.85,SW,219,0.0,3.0,82,0.00,,,0.03,,2013-05-09 11:12:00,
2013-05-09 06:22:00,50.0,45.0,29.85,SSW,202,0.0,4.0,83,0.00,,,0.03,,2013-05-09 11:22:00,
2013-05-09 06:32:00,50.0,45.0,29.86,SW,215,0.0,2.0,84,0.00,,,0.00,,2013-05-09 11:32:00,
2013-05-09 06:41:00,50.0,45.0,29.86,SW,215,0.0,2.0,84,0.00,,,0.00,,2013-05-09 11:41:00,
2013-05-09 06:51:00,51.0,46.0,29.86,SSW,209,0.0,3.0,84,0.00,,,0.00,,2013-05-09 11:51:00,
2013-05-09 07:01:00,51.0,46.0,29.86,SW,221,1.0,3.0,84,0.00,,,0.00,,2013-05-09 12:01:00,
2013-05-09 07:11:00,51.0,46.0,29.86,SW,221,1.0,3.0,84,0.00,,,0.00,,2013-05-09 12:11:00,
2013-05-09 07:22:00,51.0,47.0,29.86,SSW,205,1.0,5.0,85,0.00,,,0.00,,2013-05-09 12:22:00,
2013-05-09 07:32:00,51.0,47.0,29.87,SSW,200,0.0,6.0,85,0.00,,,0.00,,2013-05-09 12:32:00,
2013-05-09 07:42:00,51.0,47.0,29.87,SSW,200,0.0,6.0,85,0.00,,,0.00,,2013-05-09 12:42:00,
2013-05-09 07:52:00,51.0,47.0,29.87,East,81,0.0,3.0,85,0.00,,,0.00,,2013-05-09 12:52:00,
2013-05-09 08:01:00,52.0,48.0,29.87,SW,230,0.0,3.0,85,0.00,,,0.00,,2013-05-09 13:01:00,
2013-05-09 08:12:00,52.0,48.0,29.87,SW,230,0.0,3.0,85,0.00,,,0.00,,2013-05-09 13:12:00,
2013-05-09 08:21:00,52.0,48.0,29.87,WNW,283,1.0,5.0,85,0.00,,,0.00,,2013-05-09 13:21:00,
2013-05-09 08:32:00,52.0,48.0,29.88,South,170,1.0,4.0,85,0.00,,,0.00,,2013-05-09 13:32:00,
2013-05-09 08:42:00,52.0,48.0,29.88,South,170,1.0,4.0,85,0.00,,,0.00,,2013-05-09 13:42:00,
2013-05-09 08:52:00,52.0,48.0,29.88,NNW,331,0.0,4.0,85,0.00,,,0.00,,2013-05-09 13:52:00,
2013-05-09 09:01:00,53.0,49.0,29.89,SSE,153,0.0,5.0,85,0.00,,,0.00,,2013-05-09 14:01:00,
2013-05-09 09:11:00,53.0,49.0,29.89,SSE,153,0.0,5.0,85,0.00,,,0.00,,2013-05-09 14:11:00,
2013-05-09 09:21:00,53.0,48.0,29.89,NW,323,1.0,4.0,84,0.00,,,0.00,,2013-05-09 14:21:00,
2013-05-09 09:32:00,53.0,48.0,29.89,North,5,1.0,7.0,83,0.00,,,0.00,,2013-05-09 14:32:00,
2013-05-09 09:41:00,53.0,48.0,29.89,North,5,1.0,7.0,83,0.00,,,0.00,,2013-05-09 14:41:00,
2013-05-09 09:52:00,54.0,49.0,29.89,ENE,62,1.0,4.0,83,0.00,,,0.00,,2013-05-09 14:52:00,
2013-05-09 10:01:00,54.0,49.0,29.90,WNW,296,3.0,7.0,82,0.00,,,0.00,,2013-05-09 15:01:00,
2013-05-09 10:11:00,54.0,49.0,29.90,WNW,296,3.0,7.0,82,0.00,,,0.00,,2013-05-09 15:11:00,
2013-05-09 10:22:00,54.0,49.0,29.91,SSW,192,1.0,9.0,83,0.00,,,0.00,,2013-05-09 15:22:00,
2013-05-09 10:33:00,55.0,49.0,29.90,NW,319,2.0,7.0,81,0.00,,,0.00,,2013-05-09 15:33:00,
2013-05-09 10:43:00,55.0,49.0,29.90,NW,319,2.0,7.0,81,0.00,,,0.00,,2013-05-09 15:43:00,
2013-05-09 10:52:00,56.0,49.0,29.91,East,92,2.0,11.0,78,0.00,,,0.00,,2013-05-09 15:52:00,
2013-05-09 11:03:00,56.0,49.0,29.91,SSE,159,2.0,7.0,77,0.00,,,0.00,,2013-05-09 16:03:00,
2013-05-09 11:12:00,56.0,49.0,29.91,SSE,159,2.0,7.0,77,0.00,,,0.00,,2013-05-09 16:12:00,
2013-05-09 11:22:00,57.0,50.0,29.92,SSW,193,2.0,8.0,77,0.00,,,0.00,,2013-05-09 16:22:00,
2013-05-09 11:33:00,55.0,50.0,29.92,South,173,1.0,6.0,84,0.01,,,0.01,,2013-05-09 16:33:00,
2013-05-09 11:42:00,55.0,50.0,29.92,South,173,1.0,6.0,84,0.01,,,0.01,,2013-05-09 16:42:00,
2013-05-09 11:52:00,55.0,51.0,29.93,NNW,334,4.0,9.0,85,0.01,,,0.01,,2013-05-09 16:52:00,
2013-05-09 12:02:00,55.0,50.0,29.93,North,5,2.0,10.0,83,0.01,,,0.01,,2013-05-09 17:02:00,
2013-05-09 12:12:00,55.0,50.0,29.93,North,5,2.0,10.0,83,0.01,,,0.01,,2013-05-09 17:12:00,
2013-05-09 12:21:00,54.0,50.0,29.93,SSW,198,1.0,6.0,85,0.01,,,0.01,,2013-05-09 17:21:00,
2013-05-09 12:32:00,53.0,50.0,29.94,NW,323,1.0,7.0,88,0.00,,,0.01,,2013-05-09 17:32:00,
2013-05-09 12:42:00,53.0,50.0,29.94,NW,323,1.0,7.0,88,0.00,,,0.01,,2013-05-09 17:42:00,
2013-05-09 12:55:00,53.0,50.0,29.94,NW,323,1.0,7.0,88,0.00,,,0.01,,2013-05-09 17:55:00,
2013-05-09 13:01:00,55.0,51.0,29.94,NW,315,1.0,4.0,85,0.00,,,0.01,,2013-05-09 18:01:00,
2013-05-09 13:12:00,55.0,51.0,29.94,NW,315,1.0,4.0,85,0.00,,,0.01,,2013-05-09 18:12:00,
2013-05-09 13:21:00,56.0,50.0,29.94,NNE,24,1.0,7.0,81,0.00,,,0.01,,2013-05-09 18:21:00,
2013-05-09 13:32:00,57.0,51.0,29.93,NW,312,3.0,10.0,80,0.00,,,0.01,,2013-05-09 18:32:00,
2013-05-09 13:42:00,57.0,51.0,29.93,NW,312,3.0,10.0,80,0.00,,,0.01,,2013-05-09 18:42:00,
2013-05-09 13:52:00,58.0,50.0,29.93,SW,217,4.0,13.0,75,0.00,,,0.01,,2013-05-09 18:52:00,
2013-05-09 14:01:00,58.0,49.0,29.93,NNW,328,6.0,15.0,72,0.00,,,0.01,,2013-05-09 19:01:00,
2013-05-09 14:12:00,58.0,49.0,29.93,NNW,328,6.0,15.0,72,0.00,,,0.01,,2013-05-09 19:12:00,
2013-05-09 14:21:00,59.0,50.0,29.93,WNW,302,2.0,12.0,71,0.00,,,0.01,,2013-05-09 19:21:00,
2013-05-09 14:31:00,60.0,49.0,29.93,South,184,3.0,15.0,68,0.00,,,0.01,,2013-05-09 19:31:00,
2013-05-09 14:41:00,60.0,49.0,29.93,South,184,3.0,15.0,68,0.00,,,0.01,,2013-05-09 19:41:00,
2013-05-09 14:52:00,59.0,49.0,29.94,NW,308,7.0,15.0,70,0.00,,,0.01,,2013-05-09 19:52:00,
2013-05-09 15:01:00,58.0,49.0,29.94,NW,315,6.0,15.0,71,0.00,,,0.01,,2013-05-09 20:01:00,
2013-05-09 15:11:00,58.0,49.0,29.94,NW,315,6.0,15.0,71,0.00,,,0.01,,2013-05-09 20:11:00,
2013-05-09 15:22:00,59.0,50.0,29.94,West,277,6.0,15.0,71,0.00,,,0.01,,2013-05-09 20:22:00,
2013-05-09 15:32:00,58.0,49.0,29.94,NNW,329,6.0,13.0,72,0.00,,,0.01,,2013-05-09 20:32:00,
2013-05-09 15:42:00,59.0,49.0,29.93,WNW,300,5.0,15.0,69,0.00,,,0.01,,2013-05-09 20:42:00,
2013-05-09 15:52:00,59.0,49.0,29.93,WNW,300,5.0,15.0,69,0.00,,,0.01,,2013-05-09 20:52:00,
2013-05-09 16:02:00,59.0,48.0,29.93,NNW,331,5.0,15.0,66,0.00,,,0.01,,2013-05-09 21:02:00,
2013-05-09 16:11:00,59.0,48.0,29.93,NNW,331,5.0,15.0,66,0.00,,,0.01,,2013-05-09 21:11:00,
2013-05-09 16:22:00,59.0,48.0,29.93,NNW,333,4.0,11.0,68,0.00,,,0.01,,2013-05-09 21:22:00,
2013-05-09 16:32:00,59.0,48.0,29.93,NW,316,5.0,10.0,67,0.00,,,0.01,,2013-05-09 21:32:00,
2013-05-09 16:43:00,60.0,48.0,29.93,NNW,348,3.0,12.0,65,0.00,,,0.01,,2013-05-09 21:43:00,
2013-05-09 16:53:00,60.0,48.0,29.93,NNW,348,3.0,12.0,65,0.00,,,0.01,,2013-05-09 21:53:00,
2013-05-09 17:03:00,60.0,48.0,29.93,NE,36,2.0,11.0,65,0.00,,,0.01,,2013-05-09 22:03:00,
2013-05-09 17:12:00,60.0,48.0,29.93,NE,36,2.0,11.0,65,0.00,,,0.01,,2013-05-09 22:12:00,
2013-05-09 17:23:00,60.0,47.0,29.93,NNW,344,4.0,12.0,63,0.00,,,0.01,,2013-05-09 22:23:00,
2013-05-09 17:33:00,61.0,47.0,29.92,NW,320,5.0,13.0,61,0.00,,,0.01,,2013-05-09 22:33:00,
2013-05-09 17:42:00,61.0,47.0,29.92,NW,321,5.0,11.0,61,0.00,,,0.01,,2013-05-09 22:42:00,
2013-05-09 17:52:00,61.0,47.0,29.92,NW,321,5.0,11.0,61,0.00,,,0.01,,2013-05-09 22:52:00,
2013-05-09 18:02:00,60.0,47.0,29.92,NW,307,5.0,11.0,63,0.00,,,0.01,,2013-05-09 23:02:00,
2013-05-09 18:12:00,60.0,47.0,29.92,NW,307,5.0,11.0,63,0.00,,,0.01,,2013-05-09 23:12:00,
2013-05-09 18:21:00,61.0,47.0,29.93,NNW,333,7.0,11.0,61,0.00,,,0.01,,2013-05-09 23:21:00,
2013-05-09 18:32:00,62.0,48.0,29.92,NNW,329,4.0,12.0,60,0.00,,,0.01,,2013-05-09 23:32:00,
2013-05-09 18:42:00,62.0,48.0,29.92,NNW,329,4.0,12.0,60,0.00,,,0.01,,2013-05-09 23:42:00,
2013-05-09 18:52:00,61.0,47.0,29.93,NNW,343,2.0,11.0,61,0.00,,,0.01,,2013-05-09 23:52:00,
2013-05-09 19:01:00,61.0,47.0,29.93,NNW,331,4.0,11.0,60,0.00,,,0.01,,2013-05-10 00:01:00,
2013-05-09 19:11:00,61.0,47.0,29.93,NNW,331,4.0,11.0,60,0.00,,,0.01,,2013-05-10 00:11:00,
2013-05-09 19:22:00,61.0,47.0,29.94,NW,315,5.0,11.0,60,0.00,,,0.01,,2013-05-10 00:22:00,
2013-05-09 19:32:00,61.0,47.0,29.94,NNW,328,3.0,8.0,61,0.00,,,0.01,,2013-05-10 00:32:00,
2013-05-09 19:42:00,60.0,47.0,29.94,NNW,339,3.0,7.0,61,0.00,,,0.01,,2013-05-10 00:42:00,
2013-05-09 19:52:00,60.0,47.0,29.94,NNW,339,3.0,7.0,61,0.00,,,0.01,,2013-05-10 00:52:00,
2013-05-09 20:01:00,60.0,47.0,29.94,NNW,339,3.0,7.0,61,0.00,,,0.01,,2013-05-10 01:01:00,
2013-05-09 20:11:00,60.0,47.0,29.94,NNW,339,3.0,7.0,61,0.00,,,0.01,,2013-05-10 01:11:00,
2013-05-09 20:21:00,60.0,47.0,29.94,NW,318,3.0,7.0,62,0.00,,,0.01,,2013-05-10 01:21:00,
2013-05-09 20:31:00,59.0,47.0,29.95,NW,321,0.0,2.0,64,0.00,,,0.01,,2013-05-10 01:31:00,
2013-05-09 20:42:00,59.0,47.0,29.95,NW,321,0.0,2.0,64,0.00,,,0.01,,2013-05-10 01:42:00,
2013-05-09 20:52:00,59.0,47.0,29.95,NW,321,0.0,2.0,64,0.00,,,0.01,,2013-05-10 01:52:00,
2013-05-09 21:01:00,58.0,47.0,29.96,North,5,0.0,1.0,68,0.00,,,0.01,,2013-05-10 02:01:00,
2013-05-09 21:11:00,58.0,47.0,29.96,North,5,0.0,1.0,68,0.00,,,0.01,,2013-05-10 02:11:00,
2013-05-09 21:21:00,57.0,48.0,29.96,North,5,0.0,2.0,71,0.00,,,0.01,,2013-05-10 02:21:00,
2013-05-09 21:32:00,56.0,47.0,29.97,North,5,0.0,0.0,73,0.00,,,0.01,,2013-05-10 02:32:00,
2013-05-09 21:42:00,54.0,47.0,29.97,North,5,0.0,1.0,76,0.00,,,0.01,,2013-05-10 02:42:00,
2013-05-09 21:52:00,54.0,47.0,29.97,North,5,0.0,1.0,76,0.00,,,0.01,,2013-05-10 02:52:00,
2013-05-09 22:01:00,54.0,47.0,29.98,North,5,0.0,2.0,78,0.00,,,0.01,,2013-05-10 03:01:00,
2013-05-09 22:11:00,54.0,47.0,29.98,North,5,0.0,2.0,78,0.00,,,0.01,,2013-05-10 03:11:00,
2013-05-09 22:21:00,53.0,46.0,29.98,North,5,0.0,0.0,78,0.00,,,0.01,,2013-05-10 03:21:00,
2013-05-09 22:33:00,52.0,46.0,29.98,North,5,0.0,0.0,80,0.00,,,0.01,,2013-05-10 03:33:00,
2013-05-09 22:43:00,52.0,46.0,29.98,North,5,0.0,0.0,80,0.00,,,0.01,,2013-05-10 03:43:00,
2013-05-09 22:53:00,51.0,46.0,29.99,North,5,0.0,0.0,82,0.00,,,0.01,,2013-05-10 03:53:00,
2013-05-09 23:03:00,50.0,45.0,29.99,North,5,0.0,0.0,83,0.00,,,0.01,,2013-05-10 04:03:00,
2013-05-09 23:12:00,50.0,45.0,29.99,North,5,0.0,0.0,83,0.00,,,0.01,,2013-05-10 04:12:00,
2013-05-09 23:23:00,50.0,45.0,29.99,North,5,0.0,0.0,84,0.00,,,0.01,,2013-05-10 04:23:00,
2013-05-09 23:33:00,49.0,44.0,29.99,North,5,0.0,0.0,83,0.00,,,0.01,,2013-05-10 04:33:00,
2013-05-09 23:43:00,48.0,43.0,30.00,North,5,0.0,0.0,84,0.00,,,0.01,,2013-05-10 04:43:00,
2013-05-09 23:53:00,48.0,43.0,30.00,North,5,0.0,0.0,84,0.00,,,0.01,,2013-05-10 04:53:00,